Change the Weather History Date:

Thursday, October 17, 2013

  Actual Average Record
Temperature  
Mean Temperature 50 °F -  
Max Temperature 66 °F 68 °F 93 °F (1991)
Min Temperature 34 °F 40 °F 25 °F (1976)
Degree Days  
Heating Degree Days 16    
Moisture  
Dew Point 34 °F    
Average Humidity 63    
Maximum Humidity 96    
Minimum Humidity 23    
Precipitation  
Precipitation 0.00 in - - ()
Sea Level Pressure  
Sea Level Pressure 30.03 in    
Wind  
Wind Speed 7 mph (NNW)    
Max Wind Speed 12 mph    
Max Gust Speed 9 mph    
Visibility 10 miles    
Events      
Averages and records for this station are not official NWS values.
T = Trace of Precipitation, MM = Missing Value Source: NWS Daily Summary

Daily Weather History Graph

Daily Weather History Graph

Search for Another Location

Airport or City:

Trip Planner

Search our weather history database for the weather conditions in past years. The results will help you decide how hot, cold, wet, or windy it might be!

Date:

Astronomy

Oct. 17, 2013 Rise Set
Actual Time 7:52 AM CDT 7:03 PM CDT
Civil Twilight 7:26 AM CDT 7:29 PM CDT
Nautical Twilight 6:56 AM CDT 7:59 PM CDT
Astronomical Twilight 6:26 AM CDT 8:29 PM CDT
Moon 6:18 PM CDT (10/17) 6:28 AM CDT (10/17)
Length of Visible Light 12h 03m
Length of Day
11h 11m
Waxing Gibbous, 98% of the Moon is Illuminated
Oct 17
Waxing Gibbous
Oct 18
Full
Oct 26
Last Quarter
Nov 3
New
Nov 9
First Quarter

Hourly Weather History & Observations

Time (CDT) Temp. Windchill Dew Point Humidity Pressure Visibility Wind Dir Wind Speed Gust Speed Precip Events Conditions
12:15 AM 40.1 °F 34.7 °F 39.0 °F 96% 30.04 in 7.0 mi South 8.1 mph - N/A   Clear
12:35 AM 39.7 °F 35.6 °F 38.7 °F 96% 30.03 in 10.0 mi South 5.8 mph - N/A   Clear
12:55 AM 39.6 °F - 38.3 °F 95% 30.04 in 10.0 mi Calm Calm - N/A   Clear
1:15 AM 39.4 °F 36.1 °F 38.3 °F 96% 30.04 in 10.0 mi SW 4.6 mph - N/A   Clear
1:35 AM 40.6 °F 36.0 °F 38.3 °F 91% 30.03 in 10.0 mi SW 6.9 mph - N/A   Clear
1:55 AM 40.1 °F 35.3 °F 37.6 °F 91% 30.03 in 10.0 mi SW 6.9 mph - N/A   Clear
2:15 AM 39.9 °F 35.8 °F 37.4 °F 91% 30.04 in 10.0 mi WSW 5.8 mph - N/A   Clear
2:35 AM 40.3 °F 34.9 °F 37.4 °F 89% 30.04 in 10.0 mi WSW 8.1 mph - N/A   Clear
2:55 AM 40.1 °F 35.3 °F 37.0 °F 89% 30.04 in 10.0 mi WSW 6.9 mph - N/A   Clear
3:15 AM 39.2 °F 35.0 °F 36.7 °F 91% 30.04 in 10.0 mi WSW 5.8 mph - N/A   Clear
3:35 AM 38.8 °F 33.8 °F 36.5 °F 91% 30.03 in 10.0 mi WSW 6.9 mph - N/A   Clear
3:55 AM 38.8 °F 33.8 °F 36.5 °F 91% 30.03 in 10.0 mi WSW 6.9 mph - N/A   Clear
4:15 AM 38.3 °F 33.2 °F 36.0 °F 91% 30.03 in 10.0 mi West 6.9 mph - N/A   Clear
4:35 AM 37.9 °F 32.7 °F 35.6 °F 91% 30.04 in 10.0 mi West 6.9 mph - N/A   Clear
4:55 AM 37.2 °F 32.6 °F 35.2 °F 93% 30.04 in 10.0 mi WSW 5.8 mph - N/A   Clear
5:15 AM 37.6 °F 33.1 °F 35.6 °F 93% 30.04 in 10.0 mi West 5.8 mph - N/A   Clear
5:35 AM 37.4 °F 32.1 °F 35.2 °F 92% 30.04 in 10.0 mi West 6.9 mph - N/A   Clear
5:55 AM 37.0 °F 31.6 °F 34.7 °F 91% 30.04 in 10.0 mi West 6.9 mph - N/A   Clear
6:15 AM 36.3 °F 31.6 °F 34.0 °F 91% 30.04 in 10.0 mi WNW 5.8 mph - N/A   Clear
6:35 AM 36.0 °F 30.3 °F 34.0 °F 93% 30.04 in 10.0 mi WNW 6.9 mph - N/A   Clear
6:55 AM 36.0 °F 31.1 °F 33.8 °F 92% 30.05 in 10.0 mi West 5.8 mph - N/A   Clear
7:15 AM 35.6 °F 30.7 °F 33.4 °F 92% 30.05 in 10.0 mi West 5.8 mph - N/A   Clear
7:35 AM 35.6 °F 30.7 °F 33.4 °F 92% 30.05 in 10.0 mi West 5.8 mph - N/A   Clear
7:55 AM 35.1 °F 29.3 °F 32.9 °F 92% 30.05 in 10.0 mi NW 6.9 mph - N/A   Clear
8:15 AM 34.7 °F 30.6 °F 32.9 °F 93% 30.06 in 10.0 mi West 4.6 mph - N/A   Clear
8:35 AM 36.7 °F 32.9 °F 35.1 °F 94% 30.06 in 10.0 mi West 4.6 mph - N/A   Clear
8:55 AM 39.4 °F 37.2 °F 36.1 °F 88% 30.07 in 10.0 mi West 3.5 mph - N/A   Clear
9:15 AM 42.4 °F 38.8 °F 36.9 °F 81% 30.08 in 10.0 mi WNW 5.8 mph - N/A   Clear
9:35 AM 45.0 °F 41.2 °F 37.4 °F 75% 30.08 in 10.0 mi NW 6.9 mph - N/A   Clear
9:55 AM 47.5 °F - 39.4 °F 73% 30.08 in 10.0 mi NW 5.8 mph - N/A   Clear
10:15 AM 49.5 °F - 40.3 °F 71% 30.09 in 10.0 mi NW 5.8 mph - N/A   Clear
10:35 AM 51.8 °F - 40.3 °F 65% 30.09 in 10.0 mi NW 6.9 mph - N/A   Clear
10:55 AM 53.8 °F - 41.2 °F 62% 30.09 in 10.0 mi North 9.2 mph - N/A   Clear
11:15 AM 56.5 °F - 40.5 °F 55% 30.09 in 10.0 mi North 11.5 mph - N/A   Clear
11:35 AM 57.4 °F - 39.9 °F 52% 30.09 in 10.0 mi North 11.5 mph - N/A   Clear
11:55 AM 58.1 °F - 36.7 °F 45% 30.09 in 10.0 mi North 9.2 mph - N/A   Clear
12:15 PM 59.9 °F - 35.6 °F 40% 30.08 in 10.0 mi NW 6.9 mph - N/A   Clear
12:35 PM 61.2 °F - 33.4 °F 35% 30.08 in 10.0 mi North 6.9 mph - N/A   Clear
12:55 PM 61.7 °F - 31.5 °F 32% 30.06 in 10.0 mi North 6.9 mph - N/A   Clear
1:15 PM 62.8 °F - 32.7 °F 32% 30.05 in 10.0 mi NNW 5.8 mph - N/A   Clear
1:35 PM 62.8 °F - 32.0 °F 32% 30.05 in 10.0 mi North 3.5 mph 9.2 mph N/A   Clear
1:55 PM 64.0 °F - 33.4 °F 32% 30.03 in 10.0 mi NNW 6.9 mph - N/A   Clear
2:15 PM 64.4 °F - 31.3 °F 29% 30.02 in 10.0 mi North 6.9 mph - N/A   Clear
2:35 PM 63.9 °F - 29.1 °F 27% 30.01 in 10.0 mi NE 6.9 mph - N/A   Clear
2:55 PM 64.6 °F - 30.0 °F 27% 30.00 in 10.0 mi North 9.2 mph - N/A   Clear
3:15 PM 65.3 °F - 27.7 °F 24% 30.00 in 10.0 mi NNE 6.9 mph - N/A   Clear
3:35 PM 65.3 °F - 26.4 °F 23% 29.99 in 10.0 mi North 5.8 mph - N/A   Clear
3:55 PM 65.8 °F - 26.8 °F 23% 29.99 in 7.0 mi ENE 5.8 mph - N/A   Clear
4:15 PM 65.3 °F - 26.1 °F 23% 29.99 in 10.0 mi East 6.9 mph - N/A   Clear
4:35 PM 65.8 °F - 27.7 °F 24% 29.98 in 10.0 mi East 5.8 mph - N/A   Clear
4:55 PM 65.1 °F - 27.5 °F 24% 29.98 in 10.0 mi SSE 5.8 mph - N/A   Clear
5:15 PM 65.3 °F - 28.2 °F 25% 29.98 in 10.0 mi SE 5.8 mph - N/A   Clear
5:35 PM 64.6 °F - 28.2 °F 25% 29.98 in 10.0 mi ESE 5.8 mph - N/A   Clear
5:55 PM 64.4 °F - 29.1 °F 27% 29.98 in 10.0 mi ESE 6.9 mph - N/A   Clear
6:15 PM 63.7 °F - 28.9 °F 27% 29.98 in 10.0 mi ESE 5.8 mph - N/A   Clear
6:35 PM 61.7 °F - 33.6 °F 35% 29.98 in 10.0 mi East 4.6 mph - N/A   Clear
6:55 PM 59.9 °F - 32.5 °F 36% 29.99 in 10.0 mi East 5.8 mph - N/A   Clear
7:15 PM 56.1 °F - 36.7 °F 48% 29.99 in 10.0 mi ENE 6.9 mph - N/A   Clear
7:35 PM 54.0 °F - 36.1 °F 51% 29.99 in 10.0 mi East 8.1 mph - N/A   Clear
7:55 PM 52.3 °F - 36.9 °F 56% 29.99 in 10.0 mi ENE 9.2 mph - N/A   Clear
8:15 PM 51.1 °F - 36.7 °F 58% 29.99 in 10.0 mi ENE 9.2 mph - N/A   Clear
8:35 PM 50.0 °F - 36.5 °F 60% 30.00 in 10.0 mi ENE 9.2 mph - N/A   Clear
8:55 PM 49.1 °F - 36.1 °F 61% 30.01 in 10.0 mi ENE 9.2 mph - N/A   Clear
9:15 PM 49.8 °F - 35.4 °F 58% 30.01 in 10.0 mi East 10.4 mph - N/A   Clear
9:35 PM 49.8 °F - 34.2 °F 55% 30.01 in 7.0 mi East 9.2 mph - N/A   Clear
9:55 PM 49.3 °F - 33.4 °F 54% 30.02 in 10.0 mi East 9.2 mph - N/A   Clear
10:15 PM 48.2 °F - 33.8 °F 58% 30.02 in 10.0 mi East 9.2 mph - N/A   Clear
10:35 PM 48.2 °F - 34.0 °F 58% 30.02 in 10.0 mi East 10.4 mph - N/A   Scattered Clouds
10:55 PM 49.1 °F - 32.9 °F 54% 30.03 in 7.0 mi East 11.5 mph - N/A   Scattered Clouds
11:15 PM 48.6 °F - 33.3 °F 56% 30.03 in 10.0 mi East 11.5 mph - N/A   Scattered Clouds
11:35 PM 48.6 °F - 33.1 °F 55% 30.03 in 10.0 mi East 10.4 mph - N/A   Mostly Cloudy
11:55 PM 49.3 °F - 32.7 °F 53% 30.03 in 10.0 mi East 10.4 mph - N/A   Overcast